Regional Weather Roundup
Issued by NWS

Home | Current Version | Previous Version | Text Only | Print | Product List | Glossary Off
Versions: 1 2 3 4 5 6 7 8 9 10 11 12 13 14 15 16 17 18 19 20 21 22 23 24 25 26 27 28 29 30 31 32 33 34 35 36 37 38 39 40 41 42 43 44 45 46 47 48 49 50

000
ASUS43 KIND 231400
RWRIN

WEATHER ROUNDUP FOR INDIANA
NATIONAL WEATHER SERVICE INDIANAPOLIS IN
1000 AM EDT SAT SEP 23 2017

NOTE: "FAIR" INDICATES FEW OR NO CLOUDS BELOW 12,000 FEET WITH NO
SIGNIFICANT WEATHER AND/OR OBSTRUCTIONS TO VISIBILITY.

* - STATION DOES NOT REPORT WEATHER SUCH AS PRECIPITATION OR FOG.

+ - STATION NOT QUALITY CONTROLLED BY THE NATIONAL WEATHER SERVICE.
    USE DATA WITH CAUTION...ESPECIALLY DEWPOINT AND RELATIVE
    HUMIDITY OBSERVATIONS.

INZ001>003-010>013-019-020-231500-
NORTHWEST INDIANA

CITY           SKY/WX    TMP DP  RH WIND       PRES   REMARKS
GARY /AIRPORT/ SUNNY     79  68  69 SE5       30.12R
MICHIGAN CITY+ SUNNY     77  72  83 SW3       30.13R

$$

LMZ046-743>745-231500-
SOUTHERN LAKE MICHIGAN

STATION/POSITION TIME  TEMP    WIND        PRES    WAVE
                       AIR SEA DIR/SP/G            HT
                 (UTC) (F)     (DEG/KT/KT) (MB)    (FT)
BURNS HARBOR     1340   78     170/  3/  5 1020.0R
MICHIGAN CITY    1330   76     140/  2/  3   N/A
5NW MICH CITY    1350   73 71  130/  2/  4   N/A     0

$$

INZ004-005-014>016-021>024-231500-
NORTH CENTRAL INDIANA

CITY           SKY/WX    TMP DP  RH WIND       PRES   REMARKS
ELKHART        SUNNY     75  66  73 CALM      30.14R
GOSHEN         SUNNY     76  65  68 S3        30.14R
SOUTH BEND     SUNNY     75  69  81 SE3       30.14R

$$

INZ006>009-017-018-025>027-231500-
NORTHEAST INDIANA

CITY           SKY/WX    TMP DP  RH WIND       PRES   REMARKS
FORT WAYNE     SUNNY     72  67  84 S3        30.15R
KENDALLVILLE + SUNNY     74  67  80 CALM      30.15R

$$

INZ028-029-035-036-043>045-051>053-231500-
WEST CENTRAL INDIANA

CITY           SKY/WX    TMP DP  RH WIND       PRES   REMARKS
LAFAYETTE      SUNNY     74  69  85 CALM      30.12R
TERRE HAUTE    SUNNY     77  68  73 CALM      30.12R

$$

INZ030>032-037>040-046>048-054>057-064-065-231500-
CENTRAL INDIANA

CITY           SKY/WX    TMP DP  RH WIND       PRES   REMARKS
ANDERSON         N/A     75  68  78 CALM      30.14S
GREENWOOD *+   SUNNY     81  72  74 CALM      30.14R
INDIANAPOLIS   SUNNY     78  68  71 CALM      30.13R
-EAGLE CREEK   SUNNY     79  68  69 CALM      30.13R
KOKOMO +       SUNNY     76  70  82 CALM      30.15R
MT COMFORT *+  SUNNY     73  68  83 CALM      30.14R
SHELBYVILLE    SUNNY     78  66  66 CALM      30.13R

$$

INZ033-034-041-042-049-050-058-059-231500-
EAST CENTRAL INDIANA

CITY           SKY/WX    TMP DP  RH WIND       PRES   REMARKS
MUNCIE         SUNNY     80  67  64 CALM      30.14S

$$

INZ060-061-067>069-081>083-085>088-231500-
SOUTHWEST INDIANA

CITY           SKY/WX    TMP DP  RH WIND       PRES   REMARKS
EVANSVILLE     SUNNY     75  68  78 E3        30.10R
HUNTINGBURG +  SUNNY     75  69  81 E3        30.11R

$$

INZ062-063-066-070>080-084-089>092-231500-
SOUTH CENTRAL AND SOUTHEAST INDIANA

CITY           SKY/WX    TMP DP  RH WIND       PRES   REMARKS
BLOOMINGTON    SUNNY     79  66  64 SE3       30.13R
MADISON *+     SUNNY     77  68  73 CALM      30.15S

$$





USA.gov is the U.S. government's official web portal to all federal, state and local government web resources and services.